Location: Carlingford
(46.7848°N, 67.7474°W)
Time: 12:02:33
(UTC+00:00)

N. Korean satellite - Pass Details

Date: 04 December 2022
Orbit: 407 x 441 km, 97.3° (Epoch: 05 February)

Event Time Altitude Azimuth Distance (km) Brightness Sun altitude
Rises 21:41:54 0° 197° (SSW) 2,450 10.7 -9.7°
Reaches altitude 10° 21:44:14 10° 213° (SSW) 1,595 10.1 -10.1°
Maximum altitude 21:46:58 22° 266° (W) 1,053 9.3 -10.5°
Drops below altitude 10° 21:49:46 10° 319° (NW) 1,628 9.5 -10.9°
Sets 21:52:10 0° 335° (NNW) 2,518 10.3 -11.3°
